Wind_Speed
10 10 10 10 10 10 10 10 10 10 9 10 10 11 12 12 13 14 15 15 16 17 17 17 17 17 18 19 19 20 20 20 20 20 20 20 20 20 20 20 19 19 19
12 12 12 12 12 11 11 12 12 12 12 13 13 13 14 14 15 16 17 17 17 17 18 18 18 18 19 20 20 20 21 22 22 21 22 22 22 22 22 22 21 21 21
15 14 14 14 14 14 13 14 14 14 14 15 16 17 16 17 18 18 19 18 19 19 20 20 20 20 21 21 21 22 23 23 23 23 23 24 24 24 24 23 23 23 23
18 17 17 17 17 16 16 16 16 17 17 17 19 19 19 19 20 20 20 20 20 21 22 22 22 23 23 23 23 24 24 24 25 25 25 25 26 26 25 25 25 24 24
20 19 19 19 19 18 18 19 19 19 18 19 21 21 21 21 22 22 23 23 23 23 24 24 25 25 25 25 25 24 25 25 26 26 26 27 27 27 27 26 26 25 25
21 21 21 21 21 21 21 21 20 21 21 22 22 23 23 23 23 23 23 23 24 25 26 26 26 26 27 28 27 26 26 26 27 27 27 28 28 28 28 28 28 27 27
23 23 23 23 23 23 23 23 23 23 23 24 24 24 24 24 25 25 25 25 27 27 28 29 29 29 29 29 28 28 28 28 28 29 29 29 29 29 30 30 30 29 28
23 23 24 25 25 25 24 24 25 26 26 26 26 26 26 26 27 27 28 29 29 30 30 31 31 30 30 30 29 29 29 29 30 30 31 31 31 31 31 32 31 31 30
25 26 26 26 26 26 26 26 27 27 28 28 28 29 29 29 29 29 30 31 31 31 32 32 31 30 30 30 30 30 31 31 32 32 32 32 32 31 32 32 33 32 31
28 28 29 28 28 29 29 29 29 30 30 30 30 30 30 30 31 31 32 32 33 33 33 32 31 30 31 31 31 32 32 32 33 33 33 33 33 32 33 33 33 32 31
31 31 32 32 31 31 32 32 32 33 33 33 33 33 34 33 33 33 34 34 34 34 34 33 32 32 32 32 33 33 33 33 34 34 33 33 33 33 33 32 32 32 31
34 34 34 34 34 34 34 34 35 35 36 35 36 36 36 36 35 35 35 35 34 35 35 34 34 34 33 33 34 34 34 34 34 35 34 34 34 34 33 32 32 32 31
36 36 37 37 36 37 37 38 38 38 38 38 38 38 38 38 37 37 36 36 35 35 35 34 35 35 35 35 35 36 36 35 35 35 35 34 35 34 33 32 31 31 30
37 38 39 39 39 39 39 39 40 40 40 39 40 40 40 39 38 38 37 37 37 37 37 36 36 37 36 36 37 37 36 36 36 35 35 34 34 33 33 32 31 31 31
39 40 41 41 40 40 41 41 41 41 41 41 42 42 41 40 40 39 39 39 39 39 39 38 38 38 37 38 38 38 37 37 36 36 35 34 34 34 34 34 34 33 33
40 41 42 42 42 42 42 42 42 42 43 43 43 43 43 42 42 42 42 42 42 41 41 40 40 40 40 39 40 39 38 37 37 36 36 35 34 34 34 34 34 34 34
41 41 41 42 42 43 43 43 44 44 45 45 45 44 43 43 43 43 43 42 43 42 42 41 41 41 40 40 39 39 38 38 38 38 37 36 36 35 34 34 34 34 33
41 41 41 41 41 42 43 43 44 44 45 46 45 44 44 43 43 42 42 42 42 41 41 41 41 40 39 39 39 38 38 38 38 38 37 36 35 35 34 34 33 33 33
40 40 40 41 41 41 42 41 42 42 43 43 43 42 42 42 41 41 41 41 41 40 40 40 40 39 38 39 39 39 38 39 38 37 36 35 34 34 34 34 33 33 33
39 40 40 40 40 40 39 39 40 40 40 40 39 39 40 40 40 40 41 41 40 39 39 40 39 39 39 39 39 39 39 38 37 36 35 35 34 33 34 33 33 33 33
39 39 38 38 38 37 38 38 38 38 38 38 38 38 39 39 39 39 39 38 38 38 39 39 38 38 39 39 38 38 37 37 36 36 35 34 34 34 34 34 33 32 32
37 38 38 37 36 35 36 36 36 37 37 36 35 36 37 37 36 36 37 38 38 37 37 37 38 37 37 38 38 37 36 35 34 34 33 33 33 33 33 33 33 32 31
34 35 35 34 33 33 34 34 35 34 34 34 34 35 35 35 35 35 35 35 36 36 35 36 37 37 37 36 35 34 34 33 33 33 32 32 33 32 33 33 32 31 31
31 32 32 32 32 32 32 32 32 32 33 33 33 34 34 33 33 34 35 35 35 35 35 36 36 36 35 34 34 34 34 33 33 32 32 32 32 32 32 31 31 30 30
30 30 31 30 30 30 30 30 30 30 31 31 31 31 31 32 33 34 34 34 34 34 35 35 35 34 34 33 33 34 34 33 33 33 33 32 32 32 32 31 31 31 30
28 28 28 28 28 28 28 28 29 30 30 30 30 31 32 33 33 34 34 34 34 34 33 32 32 32 31 31 31 32 33 33 34 33 33 33 33 32 32 31 31 31 31
Wind_Direction
295 298 302 306 308 309 308 305 303 300 300 299 298 301 302 304 306 308 310 311 314 316 320 323 324 325 324 321 319 319 319 321 322 321 319 320 319 317 315 313 308 305 303
290 293 297 297 299 300 299 299 298 299 301 299 298 301 302 303 305 306 306 308 310 313 316 318 319 321 320 320 318 317 316 317 317 317 315 315 315 315 314 311 306 302 299
286 287 291 292 293 293 293 295 295 294 296 298 298 297 299 300 303 304 304 306 308 310 312 312 313 314 314 315 316 316 315 314 313 313 312 312 312 312 310 309 306 301 298
283 283 285 287 287 287 289 290 291 293 294 296 295 295 295 295 297 300 300 302 304 306 307 309 308 308 309 310 311 312 312 311 310 310 309 310 310 309 308 307 306 304 299
279 281 281 283 284 285 287 288 289 291 292 295 298 295 294 293 293 295 296 299 300 301 304 306 306 306 307 307 308 308 308 309 308 307 308 308 308 307 306 305 304 301 301
276 278 281 282 284 285 287 288 289 290 292 297 299 296 293 290 290 292 294 297 300 300 302 304 303 303 303 303 304 305 306 306 306 306 306 306 306 305 305 304 303 300 299
273 275 278 279 281 283 286 288 288 291 290 293 295 296 294 293 291 293 292 294 297 298 299 301 301 300 300 301 302 303 303 303 304 304 304 304 304 303 302 302 302 300 298
275 277 279 279 281 282 285 287 287 288 290 293 294 293 292 292 292 291 290 292 295 297 297 298 299 300 299 299 300 301 302 302 302 302 303 303 302 300 300 299 299 298 297
274 276 278 278 279 281 283 285 286 288 289 290 291 290 291 291 291 292 292 291 293 295 297 298 298 299 299 298 299 300 300 299 299 300 301 301 301 299 298 297 297 297 295
272 273 275 276 276 279 282 284 285 287 289 290 291 291 290 291 292 292 292 292 293 295 296 296 296 296 297 297 298 299 299 298 298 298 299 300 300 299 298 297 296 295 294
270 271 272 273 275 277 280 283 284 285 287 288 289 290 290 292 293 292 292 292 294 294 294 293 294 294 296 297 297 298 298 298 298 298 298 298 299 298 298 297 295 294 292
270 272 272 273 274 276 278 281 282 284 285 288 289 289 290 292 292 291 293 293 293 292 291 291 293 293 294 295 296 296 297 297 297 297 298 298 299 298 296 296 295 293 291
270 271 272 273 274 276 278 280 281 283 284 286 287 288 289 290 291 290 291 291 292 292 291 290 291 293 294 294 295 296 296 297 297 297 298 298 298 297 296 295 295 294 292
269 270 271 273 275 276 278 280 281 281 282 283 285 286 286 287 287 287 288 288 289 290 289 288 289 290 292 293 294 295 294 295 296 296 296 298 298 297 297 296 295 293 293
268 269 270 272 273 275 277 278 280 281 282 284 286 286 286 285 285 285 285 287 288 288 287 287 288 289 290 292 293 294 294 294 294 294 295 296 296 297 297 295 294 293 292
268 269 270 272 273 275 276 277 278 280 281 283 285 285 285 286 287 286 286 286 286 287 287 287 287 288 290 291 293 293 293 293 294 293 293 293 294 295 295 295 294 292 292
269 270 271 272 273 273 275 276 278 279 280 282 283 284 285 286 287 285 285 286 286 287 287 288 288 289 290 291 291 292 292 293 294 293 292 291 293 293 295 295 295 292 291
268 269 270 272 273 274 275 276 277 278 279 280 281 281 283 286 286 286 285 285 285 286 286 286 287 289 289 289 289 291 292 292 293 293 292 292 292 293 294 295 295 294 291
267 269 271 274 275 276 276 277 278 279 280 280 280 281 282 284 285 286 285 284 285 285 285 285 286 287 288 288 289 290 291 291 291 291 291 292 292 293 293 293 294 294 294
268 271 273 275 276 277 276 277 279 279 280 281 282 283 284 284 284 284 284 284 284 284 284 285 286 287 288 288 289 290 291 290 289 289 289 290 290 291 291 292 293 293 293
270 271 273 275 276 277 277 278 279 281 282 282 281 283 284 285 285 284 284 286 285 285 285 285 286 286 287 288 289 290 291 289 287 288 288 287 288 289 290 291 292 292 292
270 271 273 276 275 277 279 280 281 282 282 281 281 283 284 284 284 284 284 286 286 285 285 285 285 286 288 288 288 289 290 289 288 288 288 287 288 290 290 291 292 292 292
270 271 272 275 276 279 280 280 281 282 283 283 283 283 283 283 284 285 285 286 285 285 284 285 287 287 287 288 288 288 289 289 289 289 287 287 288 289 290 290 291 292 292
271 272 273 275 278 280 280 282 283 283 282 283 284 283 283 284 285 286 286 287 288 288 287 288 288 288 288 288 287 287 287 288 289 289 288 287 288 288 288 289 290 290 290
273 275 276 277 281 283 284 285 284 284 285 285 285 287 288 288 288 287 287 288 289 290 289 289 289 287 286 286 286 287 286 287 288 288 288 287 287 288 287 287 287 288 288
275 276 277 279 282 285 287 287 287 286 286 287 287 288 289 289 289 289 288 288 289 290 291 290 289 288 287 287 288 288 288 288 287 287 287 286 286 286 286 286 287 288 288
Height
5897 5897 5897 5896 5896 5896 5895 5894 5893 5893 5892 5892 5892 5891 5890 5889 5888 5887 5886 5885 5883 5882 5880 5878 5876 5874 5872 5870 5868 5866 5863 5861 5860 5858 5855 5852 5851 5848 5846 5844 5842 5840 5839
5895 5895 5894 5894 5894 5893 5893 5892 5892 5891 5890 5890 5889 5888 5888 5887 5886 5884 5883 5881 5880 5878 5877 5875 5873 5871 5869 5866 5864 5862 5860 5858 5856 5853 5851 5848 5846 5844 5841 5839 5837 5836 5834
5892 5892 5892 5891 5891 5891 5890 5889 5889 5888 5887 5886 5886 5885 5884 5883 5882 5880 5879 5877 5876 5875 5873 5871 5869 5867 5865 5862 5860 5858 5856 5853 5851 5849 5846 5843 5841 5838 5836 5834 5832 5830 5828
5888 5888 5888 5888 5888 5887 5887 5886 5885 5885 5884 5883 5882 5881 5879 5879 5877 5876 5875 5873 5872 5870 5868 5866 5864 5862 5860 5857 5855 5853 5851 5848 5846 5843 5841 5838 5835 5832 5830 5828 5826 5824 5822
5884 5884 5884 5884 5884 5884 5883 5882 5882 5881 5880 5879 5877 5876 5875 5874 5873 5871 5870 5868 5867 5865 5863 5861 5859 5857 5854 5852 5850 5847 5845 5843 5840 5838 5835 5832 5829 5826 5824 5822 5820 5818 5816
5879 5879 5879 5879 5879 5879 5879 5878 5877 5876 5875 5874 5872 5871 5869 5868 5867 5866 5864 5863 5861 5859 5857 5855 5853 5851 5848 5846 5844 5841 5839 5836 5834 5831 5829 5826 5823 5820 5818 5815 5813 5811 5809
5874 5874 5874 5874 5874 5874 5874 5873 5872 5871 5870 5868 5867 5866 5864 5863 5861 5860 5858 5857 5855 5852 5851 5849 5846 5844 5842 5840 5837 5834 5832 5829 5827 5825 5822 5819 5816 5814 5811 5808 5806 5804 5802
5869 5869 5869 5869 5869 5869 5868 5867 5866 5865 5864 5863 5861 5860 5858 5857 5855 5853 5851 5850 5848 5846 5843 5841 5839 5837 5834 5832 5830 5827 5824 5822 5820 5817 5815 5812 5809 5806 5803 5801 5798 5796 5794
5863 5863 5863 5863 5863 5862 5862 5861 5860 5859 5858 5856 5854 5853 5852 5850 5848 5846 5844 5842 5840 5838 5836 5833 5831 5829 5827 5824 5822 5820 5817 5814 5812 5809 5807 5804 5801 5798 5795 5792 5790 5787 5785
5856 5856 5856 5856 5855 5855 5855 5854 5853 5852 5850 5849 5847 5845 5844 5842 5840 5838 5836 5834 5832 5830 5828 5826 5823 5821 5819 5817 5814 5812 5809 5807 5804 5801 5798 5795 5792 5789 5786 5783 5780 5778 5776
5848 5848 5848 5848 5847 5847 5847 5846 5845 5843 5842 5840 5839 5837 5835 5833 5832 5830 5827 5825 5823 5821 5819 5817 5815 5813 5811 5808 5806 5803 5801 5798 5795 5793 5790 5787 5784 5781 5778 5774 5771 5769 5767
5839 5839 5839 5839 5838 5838 5838 5837 5835 5834 5833 5831 5830 5828 5827 5825 5823 5821 5818 5816 5814 5812 5810 5808 5806 5804 5802 5800 5797 5794 5791 5789 5786 5784 5781 5778 5775 5772 5769 5766 5763 5760 5758
5830 5830 5830 5830 5829 5829 5828 5827 5825 5824 5823 5821 5820 5818 5817 5815 5813 5811 5809 5807 5805 5803 5801 5799 5797 5795 5793 5790 5788 5785 5782 5779 5777 5774 5771 5768 5765 5762 5759 5757 5754 5751 5749
5820 5820 5819 5819 5819 5818 5817 5816 5815 5814 5812 5811 5809 5807 5806 5805 5803 5802 5800 5798 5796 5794 5792 5790 5788 5786 5783 5781 5778 5775 5772 5770 5767 5764 5762 5759 5755 5753 5750 5747 5745 5742 5740
5809 5809 5808 5808 5808 5807 5806 5805 5804 5803 5802 5800 5799 5797 5795 5794 5793 5791 5789 5787 5785 5783 5781 5779 5777 5775 5773 5771 5768 5765 5762 5760 5757 5755 5752 5749 5746 5743 5740 5737 5735 5732 5730
5798 5797 5797 5796 5796 5796 5795 5794 5793 5792 5791 5789 5787 5786 5784 5783 5781 5779 5777 5776 5773 5771 5769 5767 5765 5764 5761 5759 5757 5755 5752 5749 5747 5744 5742 5739 5736 5733 5731 5727 5725 5722 5720
5785 5785 5784 5784 5784 5784 5783 5782 5781 5781 5779 5777 5776 5774 5772 5771 5769 5767 5765 5764 5761 5759 5757 5756 5754 5751 5749 5748 5745 5743 5741 5738 5735 5733 5731 5728 5725 5723 5720 5718 5715 5712 5710
5773 5773 5772 5772 5771 5770 5770 5769 5768 5768 5767 5765 5764 5762 5760 5759 5757 5755 5753 5751 5749 5747 5746 5744 5742 5740 5738 5736 5734 5732 5729 5727 5724 5721 5719 5717 5714 5712 5710 5707 5704 5702 5699
5761 5761 5760 5760 5758 5757 5756 5755 5755 5755 5753 5752 5751 5750 5748 5747 5745 5743 5741 5739 5737 5736 5734 5732 5730 5728 5726 5724 5722 5720 5718 5715 5713 5710 5708 5706 5703 5701 5699 5696 5694 5691 5688
5750 5750 5749 5748 5747 5746 5744 5743 5743 5742 5741 5740 5738 5737 5736 5734 5733 5731 5729 5727 5725 5724 5722 5720 5718 5716 5714 5713 5711 5709 5706 5704 5701 5699 5697 5695 5693 5690 5688 5685 5683 5680 5678
5739 5738 5737 5737 5736 5735 5734 5733 5732 5731 5729 5728 5727 5725 5724 5722 5721 5719 5716 5714 5712 5711 5710 5708 5707 5705 5703 5701 5699 5697 5694 5692 5690 5688 5686 5684 5682 5679 5677 5674 5672 5669 5667
5727 5727 5727 5726 5726 5725 5723 5722 5721 5719 5718 5717 5716 5714 5713 5711 5709 5707 5706 5704 5701 5700 5698 5697 5695 5693 5691 5689 5687 5685 5683 5681 5678 5676 5674 5672 5670 5668 5666 5664 5661 5659 5657
5717 5717 5716 5716 5716 5715 5714 5712 5710 5709 5707 5706 5705 5703 5702 5700 5698 5697 5695 5693 5690 5688 5687 5685 5684 5682 5679 5677 5675 5673 5671 5669 5667 5665 5663 5661 5659 5657 5655 5653 5651 5649 5647
5708 5708 5707 5707 5707 5706 5704 5702 5700 5699 5697 5696 5695 5693 5691 5690 5688 5686 5684 5683 5680 5678 5676 5674 5672 5670 5668 5665 5664 5662 5660 5658 5656 5654 5652 5651 5649 5647 5645 5643 5641 5639 5637
5700 5700 5699 5699 5698 5697 5696 5694 5692 5690 5688 5687 5685 5683 5681 5680 5678 5676 5674 5672 5669 5667 5665 5663 5660 5658 5656 5654 5652 5650 5648 5647 5645 5643 5641 5640 5638 5636 5634 5633 5631 5629 5628
5692 5692 5692 5691 5690 5689 5687 5685 5684 5682 5680 5678 5677 5675 5673 5671 5669 5666 5664 5661 5659 5656 5654 5652 5649 5647 5645 5643 5641 5639 5637 5636 5634 5632 5630 5629 5627 5626 5624 5622 5620 5619 5617